Time,TemperatureF,DewpointF,PressureIn,WindDirection,WindDirectionDegrees,WindSpeedMPH,WindSpeedGustMPH,Humidity,HourlyPrecipIn,Conditions,Clouds,dailyrainin,SoftwareType,DateUTC
2013-02-12 07:10:00,27.4,23.5,30.14,WNW,300,4.0,5.0,85,0.00,,,0.00,Wunderground v.1.15,2013-02-12 13:10:00,
2013-02-12 07:13:00,27.4,23.2,30.13,WNW,302,4.0,5.0,84,0.00,,,0.00,Wunderground v.1.15,2013-02-12 13:13:00,
2013-02-12 07:14:00,27.4,23.2,30.13,WNW,302,4.0,5.0,84,0.00,,,0.00,Wunderground v.1.15,2013-02-12 13:14:00,
2013-02-12 07:16:00,27.5,23.3,30.13,NW,304,4.0,5.0,84,0.00,,,0.00,Wunderground v.1.15,2013-02-12 13:16:00,
2013-02-12 07:21:00,27.4,22.9,30.13,West,279,3.0,5.0,83,0.00,,,0.00,Wunderground v.1.15,2013-02-12 13:21:00,
2013-02-12 07:27:00,27.6,23.7,30.13,WNW,297,3.0,5.0,85,0.00,,,0.00,Wunderground v.1.15,2013-02-12 13:27:00,
2013-02-12 07:32:00,27.6,23.4,30.13,WSW,256,3.0,4.0,84,0.00,,,0.00,Wunderground v.1.15,2013-02-12 13:32:00,
2013-02-12 07:39:00,27.8,23.6,30.14,WNW,301,3.0,4.0,84,0.00,,,0.00,Wunderground v.1.15,2013-02-12 13:39:00,
2013-02-12 07:44:00,27.8,23.6,30.14,WNW,284,3.0,5.0,84,0.00,,,0.00,Wunderground v.1.15,2013-02-12 13:44:00,
2013-02-12 07:49:00,27.7,23.5,30.14,West,264,4.0,6.0,84,0.00,,,0.00,Wunderground v.1.15,2013-02-12 13:49:00,
2013-02-12 07:55:00,27.8,23.9,30.14,West,264,3.0,5.0,85,0.00,,,0.00,Wunderground v.1.15,2013-02-12 13:55:00,
2013-02-12 08:00:00,27.9,23.7,30.14,WNW,303,4.0,5.0,84,0.00,,,0.00,Wunderground v.1.15,2013-02-12 14:00:00,
2013-02-12 08:06:00,27.9,23.7,30.13,WNW,299,4.0,5.0,84,0.00,,,0.00,Wunderground v.1.15,2013-02-12 14:06:00,
2013-02-12 08:12:00,27.8,23.3,30.13,West,264,3.0,8.0,83,0.00,,,0.00,Wunderground v.1.15,2013-02-12 14:12:00,
2013-02-12 08:18:00,27.8,23.6,30.13,West,276,3.0,8.0,84,0.00,,,0.00,Wunderground v.1.15,2013-02-12 14:18:00,
2013-02-12 08:23:00,27.9,23.7,30.13,West,260,3.0,4.0,84,0.00,,,0.00,Wunderground v.1.15,2013-02-12 14:23:00,
2013-02-12 08:29:00,27.9,23.7,30.13,NW,311,4.0,5.0,84,0.00,,,0.00,Wunderground v.1.15,2013-02-12 14:29:00,
2013-02-12 08:34:00,28.1,24.2,30.14,West,261,4.0,5.0,85,0.00,,,0.00,Wunderground v.1.15,2013-02-12 14:34:00,
2013-02-12 08:39:00,28.2,24.0,30.13,WNW,284,4.0,5.0,84,0.00,,,0.00,Wunderground v.1.15,2013-02-12 14:39:00,
2013-02-12 08:45:00,28.2,24.0,30.13,WNW,296,3.0,6.0,84,0.00,,,0.00,Wunderground v.1.15,2013-02-12 14:45:00,
2013-02-12 08:50:00,28.3,24.1,30.14,WSW,244,3.0,3.0,84,0.00,,,0.00,Wunderground v.1.15,2013-02-12 14:50:00,
2013-02-12 08:56:00,28.5,24.3,30.13,WNW,294,3.0,5.0,84,0.00,,,0.00,Wunderground v.1.15,2013-02-12 14:56:00,
2013-02-12 09:02:00,28.6,24.1,30.14,WSW,252,3.0,4.0,83,0.00,,,0.00,Wunderground v.1.15,2013-02-12 15:02:00,
2013-02-12 09:09:00,28.5,23.7,30.14,WSW,252,4.0,6.0,82,0.00,,,0.00,Wunderground v.1.15,2013-02-12 15:09:00,
2013-02-12 09:14:00,28.6,24.4,30.14,WNW,294,4.0,4.0,84,0.00,,,0.00,Wunderground v.1.15,2013-02-12 15:14:00,
2013-02-12 09:19:00,28.6,24.1,30.14,WSW,246,3.0,8.0,83,0.00,,,0.00,Wunderground v.1.15,2013-02-12 15:19:00,
2013-02-12 09:24:00,28.8,24.3,30.15,WSW,258,4.0,6.0,83,0.00,,,0.00,Wunderground v.1.15,2013-02-12 15:24:00,
2013-02-12 09:30:00,28.9,24.4,30.14,WSW,250,3.0,9.0,83,0.00,,,0.00,Wunderground v.1.15,2013-02-12 15:30:00,
2013-02-12 09:36:00,28.9,24.4,30.15,West,271,4.0,9.0,83,0.00,,,0.00,Wunderground v.1.15,2013-02-12 15:36:00,
2013-02-12 09:42:00,28.7,23.9,30.15,West,267,4.0,6.0,82,0.00,,,0.00,Wunderground v.1.15,2013-02-12 15:42:00,
2013-02-12 09:47:00,28.6,23.8,30.15,West,259,4.0,7.0,82,0.00,,,0.00,Wunderground v.1.15,2013-02-12 15:47:00,
2013-02-12 09:53:00,28.4,23.6,30.15,WSW,239,5.0,7.0,82,0.00,,,0.00,Wunderground v.1.15,2013-02-12 15:53:00,
2013-02-12 09:59:00,28.5,24.0,30.14,West,261,5.0,7.0,83,0.00,,,0.00,Wunderground v.1.15,2013-02-12 15:59:00,
2013-02-12 10:04:00,28.6,24.1,30.14,WSW,244,4.0,8.0,83,0.00,,,0.00,Wunderground v.1.15,2013-02-12 16:04:00,
2013-02-12 10:10:00,28.6,23.8,30.14,SW,229,5.0,5.0,82,0.00,,,0.00,Wunderground v.1.15,2013-02-12 16:10:00,
2013-02-12 10:16:00,28.7,23.9,30.15,West,259,4.0,5.0,82,0.00,,,0.00,Wunderground v.1.15,2013-02-12 16:16:00,
2013-02-12 10:21:00,28.7,23.9,30.14,WNW,293,4.0,5.0,82,0.00,,,0.00,Wunderground v.1.15,2013-02-12 16:21:00,
2013-02-12 10:27:00,28.8,24.0,30.15,West,274,4.0,5.0,82,0.00,,,0.00,Wunderground v.1.15,2013-02-12 16:27:00,
2013-02-12 10:32:00,28.9,24.1,30.15,WSW,247,4.0,7.0,82,0.00,,,0.00,Wunderground v.1.15,2013-02-12 16:32:00,
2013-02-12 10:38:00,28.9,24.4,30.14,West,263,4.0,7.0,83,0.00,,,0.00,Wunderground v.1.15,2013-02-12 16:38:00,
2013-02-12 10:44:00,29.3,24.8,30.13,WNW,288,4.0,6.0,83,0.00,,,0.00,Wunderground v.1.15,2013-02-12 16:44:00,
2013-02-12 10:49:00,29.2,24.4,30.13,WNW,297,5.0,6.0,82,0.00,,,0.00,Wunderground v.1.15,2013-02-12 16:49:00,
2013-02-12 10:54:00,29.2,24.4,30.12,NW,306,5.0,5.0,82,0.00,,,0.00,Wunderground v.1.15,2013-02-12 16:54:00,
2013-02-12 11:00:00,29.1,24.0,30.12,WNW,288,5.0,5.0,81,0.00,,,0.00,Wunderground v.1.15,2013-02-12 17:00:00,
2013-02-12 11:06:00,29.0,24.2,30.11,WNW,296,5.0,6.0,82,0.00,,,0.00,Wunderground v.1.15,2013-02-12 17:06:00,
2013-02-12 11:11:00,29.2,24.4,30.10,WNW,283,5.0,6.0,82,0.00,,,0.00,Wunderground v.1.15,2013-02-12 17:11:00,
2013-02-12 11:17:00,29.2,24.4,30.10,WNW,298,5.0,7.0,82,0.00,,,0.00,Wunderground v.1.15,2013-02-12 17:17:00,
2013-02-12 11:23:00,29.5,24.7,30.09,WNW,284,5.0,5.0,82,0.00,,,0.00,Wunderground v.1.15,2013-02-12 17:23:00,
2013-02-12 11:29:00,29.7,25.2,30.09,WNW,299,4.0,5.0,83,0.00,,,0.00,Wunderground v.1.15,2013-02-12 17:29:00,
2013-02-12 11:34:00,29.9,25.1,30.09,WNW,288,3.0,4.0,82,0.00,,,0.00,Wunderground v.1.15,2013-02-12 17:34:00,
2013-02-12 11:40:00,29.7,24.9,30.09,WNW,299,4.0,6.0,82,0.00,,,0.00,Wunderground v.1.15,2013-02-12 17:40:00,
2013-02-12 11:45:00,29.4,24.3,30.09,West,275,4.0,6.0,81,0.00,,,0.00,Wunderground v.1.15,2013-02-12 17:45:00,
2013-02-12 11:51:00,29.4,24.6,30.08,WSW,242,5.0,5.0,82,0.00,,,0.00,Wunderground v.1.15,2013-02-12 17:51:00,
2013-02-12 11:56:00,29.6,24.8,30.08,West,263,4.0,7.0,82,0.00,,,0.00,Wunderground v.1.15,2013-02-12 17:56:00,
2013-02-12 12:02:00,29.7,24.9,30.08,West,275,4.0,4.0,82,0.00,,,0.00,Wunderground v.1.15,2013-02-12 18:02:00,
2013-02-12 12:08:00,29.9,25.1,30.08,WNW,300,4.0,5.0,82,0.00,,,0.00,Wunderground v.1.15,2013-02-12 18:08:00,
2013-02-12 12:13:00,30.0,25.2,30.08,WNW,285,4.0,6.0,82,0.00,,,0.00,Wunderground v.1.15,2013-02-12 18:13:00,
2013-02-12 12:19:00,30.1,25.0,30.08,WNW,293,4.0,6.0,81,0.00,,,0.00,Wunderground v.1.15,2013-02-12 18:19:00,
2013-02-12 12:25:00,30.3,25.2,30.08,WNW,300,4.0,5.0,81,0.00,,,0.00,Wunderground v.1.15,2013-02-12 18:25:00,
2013-02-12 12:31:00,30.3,25.2,30.08,WNW,290,4.0,5.0,81,0.00,,,0.00,Wunderground v.1.15,2013-02-12 18:31:00,
2013-02-12 12:36:00,30.4,25.3,30.08,West,281,4.0,5.0,81,0.00,,,0.00,Wunderground v.1.15,2013-02-12 18:36:00,
2013-02-12 12:42:00,30.5,25.4,30.07,WNW,282,4.0,4.0,81,0.00,,,0.00,Wunderground v.1.15,2013-02-12 18:42:00,
2013-02-12 12:49:00,30.8,25.4,30.07,WSW,257,3.0,4.0,80,0.00,,,0.00,Wunderground v.1.15,2013-02-12 18:49:00,
2013-02-12 12:54:00,30.8,26.0,30.06,WNW,287,4.0,5.0,82,0.00,,,0.00,Wunderground v.1.15,2013-02-12 18:54:00,
2013-02-12 12:59:00,31.0,25.6,30.07,WNW,298,4.0,5.0,80,0.00,,,0.00,Wunderground v.1.15,2013-02-12 18:59:00,
2013-02-12 13:04:00,31.0,25.9,30.07,WNW,292,4.0,5.0,81,0.00,,,0.00,Wunderground v.1.15,2013-02-12 19:04:00,
2013-02-12 13:10:00,30.9,25.8,30.07,WNW,296,5.0,5.0,81,0.00,,,0.00,Wunderground v.1.15,2013-02-12 19:10:00,
2013-02-12 13:15:00,31.0,25.6,30.06,WNW,294,4.0,7.0,80,0.00,,,0.00,Wunderground v.1.15,2013-02-12 19:15:00,
2013-02-12 13:21:00,31.2,25.7,30.06,West,272,4.0,5.0,80,0.00,,,0.00,Wunderground v.1.15,2013-02-12 19:21:00,
2013-02-12 13:26:00,31.2,25.7,30.07,WNW,284,4.0,6.0,80,0.00,,,0.00,Wunderground v.1.15,2013-02-12 19:26:00,
2013-02-12 13:32:00,31.3,26.1,30.07,WNW,284,4.0,4.0,81,0.00,,,0.00,Wunderground v.1.15,2013-02-12 19:32:00,
2013-02-12 13:37:00,31.3,25.8,30.07,WNW,283,4.0,4.0,80,0.00,,,0.00,Wunderground v.1.15,2013-02-12 19:37:00,
2013-02-12 13:43:00,31.5,26.3,30.07,WNW,298,4.0,4.0,81,0.00,,,0.00,Wunderground v.1.15,2013-02-12 19:43:00,
2013-02-12 13:49:00,31.6,26.1,30.07,WNW,283,4.0,6.0,80,0.00,,,0.00,Wunderground v.1.15,2013-02-12 19:49:00,
2013-02-12 13:54:00,31.6,25.8,30.07,West,265,4.0,7.0,79,0.00,,,0.00,Wunderground v.1.15,2013-02-12 19:54:00,
2013-02-12 13:59:00,31.5,26.0,30.07,West,276,4.0,7.0,80,0.00,,,0.00,Wunderground v.1.15,2013-02-12 19:59:00,
2013-02-12 14:04:00,31.5,26.0,30.07,WSW,258,4.0,9.0,80,0.00,,,0.00,Wunderground v.1.15,2013-02-12 20:04:00,
2013-02-12 14:10:00,31.5,26.0,30.07,WNW,294,4.0,4.0,80,0.00,,,0.00,Wunderground v.1.15,2013-02-12 20:10:00,
2013-02-12 14:15:00,31.5,25.7,30.07,WSW,250,4.0,5.0,79,0.00,,,0.00,Wunderground v.1.15,2013-02-12 20:15:00,
2013-02-12 14:21:00,31.5,25.7,30.07,WSW,256,4.0,5.0,79,0.00,,,0.00,Wunderground v.1.15,2013-02-12 20:21:00,
2013-02-12 14:26:00,31.4,25.6,30.07,NW,310,4.0,6.0,79,0.00,,,0.00,Wunderground v.1.15,2013-02-12 20:26:00,
2013-02-12 14:32:00,31.4,25.6,30.06,WNW,289,4.0,4.0,79,0.00,,,0.00,Wunderground v.1.15,2013-02-12 20:32:00,
2013-02-12 14:37:00,31.5,25.7,30.06,WNW,290,4.0,5.0,79,0.00,,,0.00,Wunderground v.1.15,2013-02-12 20:37:00,
2013-02-12 14:43:00,31.4,25.6,30.06,West,281,4.0,8.0,79,0.00,,,0.00,Wunderground v.1.15,2013-02-12 20:43:00,
2013-02-12 14:49:00,31.5,25.4,30.06,WNW,294,4.0,8.0,78,0.00,,,0.00,Wunderground v.1.15,2013-02-12 20:49:00,
2013-02-12 14:55:00,31.4,25.3,30.06,SSW,202,4.0,6.0,78,0.00,,,0.00,Wunderground v.1.15,2013-02-12 20:55:00,
2013-02-12 15:01:00,31.4,25.6,30.06,WNW,295,4.0,6.0,79,0.00,,,0.00,Wunderground v.1.15,2013-02-12 21:01:00,
2013-02-12 15:07:00,31.4,25.9,30.06,WNW,292,4.0,6.0,80,0.00,,,0.00,Wunderground v.1.15,2013-02-12 21:07:00,
2013-02-12 15:12:00,31.6,26.1,30.06,WNW,297,4.0,5.0,80,0.00,,,0.00,Wunderground v.1.15,2013-02-12 21:12:00,
2013-02-12 15:19:00,31.5,25.4,30.06,West,279,4.0,5.0,78,0.00,,,0.00,Wunderground v.1.15,2013-02-12 21:19:00,
2013-02-12 15:24:00,31.5,25.7,30.06,WNW,296,4.0,6.0,79,0.00,,,0.00,Wunderground v.1.15,2013-02-12 21:24:00,
2013-02-12 15:29:00,31.4,25.6,30.06,WNW,282,4.0,7.0,79,0.00,,,0.00,Wunderground v.1.15,2013-02-12 21:29:00,